Weather in Karlstad

Sweden     59°22′47″N   13°28′27″E
temp.,
°C
wind,
m/s
gust,
m/s
humid.,
%
clouds,
%
prec.,
mm/h
press.,
hPa
HPBL,
m
22 october, fri
fri2223:00+5wnw4135194 0.0 982753
02:00+3w413594 0.0 984509
05:00+2w3116556 0.0 985366
08:00+1w311705 0.0 986304
11:00+5w310557 0.0 987405
14:00+7wnw4948100 0.0 988724
17:00+6wnw4105211 0.0 991517
20:00+4wnw4145998 0.0 994498
23 october, sat
sat2323:00+6nnw61260100 0.0 9991137
02:00+2nnw310805 0.0 1004410
05:000nw278461 0.0 1008164
08:00+1nw268136 0.0 1012131
11:00+5nnw310625 0.0 1016744
14:00+8nnw48521 0.0 10181269
17:00+5nnw22635 0.0 102016
20:00+3wnw117015 0.0 102210
24 october, sun
sun2423:00+2sse1171100 0.0 102310
02:00+3sse2477100 0.0 102265
05:00+6ssw41281100 0.0 1021674
08:00+7ssw51285100 0.0 1020780
11:00+9ssw51186100 0.0 1020919
14:00+10ssw51185100 0.0 10191023
17:00+10ssw51289100 0.1 10181124
20:00+9ssw51193100 0.5 1017974
25 october, mon
mon2523:00+10ssw61388100 0.2 1017984
02:00+9sw51285100 0.2 1016884
05:00+9ssw51186100 0.0 1015783
08:00+8ssw51184100 0.0 1014726
11:00+9ssw5108054 0.0 1014789
14:00+10ssw487666 0.0 1013809
17:00+9ssw4108598 0.0 1011627
20:00+10sw51189100 0.0 1011908
26 october, tue
tue2623:00+9ssw41294100 0.0 1010645
02:00+10ssw41191100 0.1 1009683
05:00+9sw4118615 0.2 1008664
08:00+7wsw4108910 0.2 1008530
11:00+9wsw411732 0.0 1009668
14:00+11wsw48631 0.0 1009927
17:00+9wsw4974100 0.0 1010494
20:00+8ssw279075 0.0 1010208